| time (UTC) | temp C | wind direction | speed KPH | gust KPH | rain 1hr cm | rain 24hr cm | rain mn cm | humidity % | barometer mb |
| 20260505140622 | 15 | 249 | 4.8 | 8.0 | 0.00 | 0.36 | 0.36 | 92 | 1008.9 |
| 20260505140119 | 15 | 227 | 8.0 | 11.3 | 0.00 | 0.36 | 0.36 | 91 | 1008.6 |
| 20260505125036 | 13 | 258 | 16.1 | 17.7 | 0.00 | 0.36 | 0.36 | 92 | 1008.2 |
| 20260505124532 | 13 | 244 | 11.3 | 12.9 | 0.00 | 0.36 | 0.36 | 93 | 1008.2 |
| 20260505124029 | 13 | 227 | 14.5 | 16.1 | 0.00 | 0.36 | 0.36 | 93 | 1008.0 |
| 20260505123525 | 13 | 260 | 19.3 | 22.5 | 0.00 | 0.36 | 0.36 | 93 | 1007.9 |
| 20260505123021 | 14 | 235 | 17.7 | 20.9 | 0.00 | 0.36 | 0.36 | 94 | 1008.0 |
| 20260505122519 | 14 | 232 | 14.5 | 16.1 | 0.00 | 0.36 | 0.36 | 94 | 1008.0 |
| 20260505122016 | 14 | 215 | 9.7 | 11.3 | 0.00 | 0.36 | 0.36 | 94 | 1008.0 |
| 20260505121512 | 14 | 221 | 11.3 | 12.9 | 0.00 | 0.36 | 0.36 | 94 | 1008.3 |
| 20260505121009 | 14 | 250 | 6.4 | 8.0 | 0.00 | 0.36 | 0.36 | 94 | 1008.1 |
| 20260505120506 | 14 | 238 | 8.0 | 11.3 | 0.00 | 0.36 | 0.36 | 94 | 1008.2 |
| 20260505120006 | 14 | 228 | 11.3 | 11.3 | 0.00 | 0.36 | 0.36 | 94 | 1007.9 |
| 20260505115501 | 14 | 223 | 8.0 | 8.0 | 0.00 | 0.36 | 0.36 | 95 | 1007.9 |
| 20260505114959 | 14 | 149 | 0.0 | 0.0 | 0.00 | 0.36 | 0.36 | 95 | 1008.2 |
| 20260505114455 | 14 | 230 | 4.8 | 4.8 | 0.00 | 0.36 | 0.36 | 95 | 1007.9 |
| 20260505113952 | 14 | 240 | 3.2 | 3.2 | 0.00 | 0.36 | 0.36 | 95 | 1007.2 |
| 20260505113448 | 14 | 206 | 4.8 | 4.8 | 0.00 | 0.36 | 0.36 | 95 | 1007.2 |
| 20260505112944 | 14 | 200 | 3.2 | 3.2 | 0.00 | 0.36 | 0.36 | 95 | 1007.2 |
| 20260505112441 | 14 | 246 | 4.8 | 4.8 | 0.00 | 0.36 | 0.36 | 95 | 1007.2 |
| 20260505111938 | 14 | 208 | 3.2 | 3.2 | 0.00 | 0.36 | 0.36 | 95 | 1007.7 |
| 20260505111432 | 14 | 139 | 3.2 | 3.2 | 0.00 | 0.36 | 0.36 | 95 | 1008.1 |
| 20260505110929 | 14 | 154 | 0.0 | 0.0 | 0.00 | 0.36 | 0.36 | 95 | 1007.8 |
| 20260505110426 | 14 | 198 | 1.6 | 3.2 | 0.00 | 0.36 | 0.36 | 95 | 1007.5 |
| 20260505101856 | 14 | 171 | 0.0 | 0.0 | 0.00 | 0.36 | 0.36 | 96 | 1006.8 |
| 20260505101351 | 14 | 132 | 3.2 | 3.2 | 0.00 | 0.36 | 0.36 | 95 | 1006.8 |
| 20260505100847 | 14 | 122 | 1.6 | 3.2 | 0.00 | 0.36 | 0.36 | 95 | 1006.4 |
| 20260505100344 | 14 | 183 | 1.6 | 1.6 | 0.00 | 0.36 | 0.36 | 95 | 1006.4 |
| 20260505095840 | 14 | 286 | 1.6 | 1.6 | 0.00 | 0.36 | 0.36 | 93 | 1006.4 |
| 20260505095338 | 14 | 296 | 1.6 | 3.2 | 0.00 | 0.36 | 0.36 | 92 | 1006.1 |
| 20260505094833 | 14 | 327 | 4.8 | 8.0 | 0.13 | 0.36 | 0.36 | 91 | 1006.5 |
| 20260505094331 | 14 | 2 | 3.2 | 3.2 | 0.13 | 0.36 | 0.36 | 91 | 1006.1 |
| 20260505093826 | 15 | 299 | 8.0 | 11.3 | 0.00 | 0.33 | 0.33 | 91 | 1005.9 |
| 20260505093324 | 15 | 353 | 11.3 | 12.9 | 0.00 | 0.33 | 0.33 | 91 | 1005.7 |
| 20260505092820 | 15 | 342 | 8.0 | 12.9 | 0.18 | 0.33 | 0.33 | 91 | 1006.4 |
| 20260505092319 | 15 | 352 | 6.4 | 8.0 | 0.18 | 0.33 | 0.33 | 91 | 1007.1 |
| 20260505091816 | 15 | 0 | 4.8 | 4.8 | 0.13 | 0.30 | 0.30 | 91 | 1007.1 |
| 20260505091314 | 15 | 0 | 1.6 | 3.2 | 0.30 | 0.30 | 0.30 | 91 | 1007.5 |
| 20260505090811 | 15 | 155 | 0.0 | 0.0 | 0.18 | 0.28 | 0.28 | 90 | 1007.4 |
| 20260505090310 | 15 | 133 | 1.6 | 3.2 | 0.30 | 0.25 | 0.25 | 90 | 1007.8 |
| 20260505085806 | 15 | 87 | 6.4 | 9.7 | 0.61 | 0.25 | 0.25 | 89 | 1007.9 |
| 20260505085305 | 15 | 87 | 11.3 | 14.5 | 0.43 | 0.20 | 0.20 | 89 | 1007.7 |
| 20260505084801 | 15 | 131 | 11.3 | 14.5 | 0.30 | 0.15 | 0.15 | 89 | 1007.9 |
| 20260505084301 | 15 | 116 | 8.0 | 11.3 | 0.30 | 0.13 | 0.13 | 89 | 1007.8 |
| 20260505083757 | 15 | 110 | 9.7 | 12.9 | 0.30 | 0.10 | 0.10 | 88 | 1007.5 |
| 20260505083254 | 15 | 86 | 11.3 | 14.5 | 0.36 | 0.08 | 0.08 | 88 | 1007.9 |
| 20260505082750 | 16 | 78 | 12.9 | 22.5 | 0.18 | 0.05 | 0.05 | 87 | 1007.5 |
| 20260505082247 | 16 | 75 | 0.0 | 1.6 | 0.00 | 0.03 | 0.03 | 86 | 1007.5 |
| 20260505081743 | 16 | 86 | 1.6 | 4.8 | 0.13 | 0.03 | 0.03 | 84 | 1007.6 |
| 20260505081240 | 16 | 52 | 16.1 | 20.9 | 0.00 | 0.00 | 0.00 | 82 | 1007.5 |
| 20260505080737 | 17 | 39 | 12.9 | 22.5 | 0.00 | 0.00 | 0.00 | 80 | 1007.3 |
| 20260505080233 | 17 | 49 | 3.2 | 3.2 | 0.00 | 0.00 | 0.00 | 80 | 1007.5 |
| 20260505075729 | 17 | 54 | 3.2 | 8.0 | 0.00 | 0.00 | 0.00 | 77 | 1007.4 |
| 20260505075226 | 17 | 69 | 4.8 | 4.8 | 0.00 | 0.00 | 0.00 | 75 | 1007.2 |
| 20260505074723 | 17 | 71 | 1.6 | 1.6 | 0.00 | 0.00 | 0.00 | 75 | 1007.1 |
| 20260505074220 | 17 | 3 | 9.7 | 11.3 | 0.00 | 0.00 | 0.00 | 75 | 1007.0 |
| 20260505073718 | 17 | 35 | 11.3 | 16.1 | 0.00 | 0.00 | 0.00 | 74 | 1007.2 |
| 20260505073216 | 17 | 11 | 4.8 | 4.8 | 0.00 | 0.00 | 0.00 | 74 | 1007.0 |
| 20260505072711 | 17 | 28 | 8.0 | 9.7 | 0.00 | 0.00 | 0.00 | 74 | 1007.1 |
| 20260505072208 | 17 | 26 | 4.8 | 8.0 | 0.00 | 0.00 | 0.00 | 74 | 1007.0 |
| 20260505071703 | 17 | 359 | 8.0 | 9.7 | 0.00 | 0.00 | 0.00 | 74 | 1006.8 |
| 20260505071201 | 17 | 14 | 6.4 | 9.7 | 0.00 | 0.00 | 0.00 | 74 | 1006.7 |
| 20260505070659 | 17 | 9 | 8.0 | 9.7 | 0.00 | 0.00 | 0.00 | 74 | 1006.9 |
| 20260505070154 | 17 | 7 | 8.0 | 12.9 | 0.00 | 0.00 | 0.00 | 73 | 1007.0 |
| 20260505065650 | 17 | 25 | 12.9 | 14.5 | 0.00 | 0.00 | 0.00 | 73 | 1006.9 |
| 20260505065148 | 17 | 37 | 4.8 | 9.7 | 0.00 | 0.00 | 0.00 | 74 | 1007.2 |
| 20260505064644 | 17 | 44 | 6.4 | 8.0 | 0.00 | 0.00 | 0.00 | 73 | 1007.2 |
| 20260505064142 | 17 | 32 | 8.0 | 9.7 | 0.00 | 0.00 | 0.00 | 74 | 1007.6 |
| 20260505063640 | 17 | 349 | 8.0 | 9.7 | 0.00 | 0.00 | 0.00 | 74 | 1007.4 |
| 20260505063136 | 17 | 3 | 8.0 | 12.9 | 0.00 | 0.00 | 0.00 | 74 | 1007.6 |
| 20260505062633 | 17 | 349 | 9.7 | 11.3 | 0.00 | 0.00 | 0.00 | 74 | 1007.8 |
| 20260505062129 | 17 | 14 | 3.2 | 3.2 | 0.00 | 0.00 | 0.00 | 74 | 1007.7 |
| 20260505061626 | 17 | 350 | 11.3 | 12.9 | 0.00 | 0.00 | 0.00 | 74 | 1007.8 |
| 20260505061125 | 17 | 53 | 8.0 | 9.7 | 0.00 | 0.00 | 0.00 | 74 | 1008.0 |
| 20260505060622 | 17 | 33 | 8.0 | 11.3 | 0.00 | 0.00 | 0.00 | 73 | 1007.6 |
| 20260505060119 | 17 | 42 | 8.0 | 12.9 | 0.00 | 0.00 | 0.00 | 73 | 1007.5 |
| 20260505055614 | 17 | 41 | 8.0 | 12.9 | 0.00 | 0.00 | 0.00 | 73 | 1007.7 |
| 20260505055110 | 17 | 1 | 8.0 | 12.9 | 0.00 | 0.00 | 0.00 | 73 | 1007.7 |
| 20260505054608 | 17 | 335 | 8.0 | 9.7 | 0.00 | 0.00 | 0.00 | 73 | 1007.7 |
| 20260505054106 | 17 | 16 | 6.4 | 9.7 | 0.00 | 0.00 | 0.00 | 73 | 1007.7 |
| 20260505053603 | 17 | 44 | 6.4 | 9.7 | 0.00 | 0.00 | 0.00 | 73 | 1007.8 |
| 20260505053059 | 17 | 50 | 9.7 | 14.5 | 0.00 | 0.00 | 0.00 | 73 | 1007.7 |
| 20260505052556 | 17 | 63 | 9.7 | 14.5 | 0.00 | 0.00 | 0.00 | 73 | 1007.7 |
| 20260505052054 | 17 | 359 | 8.0 | 12.9 | 0.00 | 0.00 | 0.00 | 73 | 1007.8 |
| 20260505051551 | 17 | 20 | 4.8 | 4.8 | 0.00 | 0.00 | 0.00 | 73 | 1008.0 |
| 20260505051049 | 17 | 11 | 9.7 | 11.3 | 0.00 | 0.00 | 0.00 | 73 | 1008.0 |
| 20260505050547 | 17 | 294 | 8.0 | 11.3 | 0.00 | 0.00 | 0.00 | 73 | 1007.9 |
| 20260505041514 | 18 | 351 | 4.8 | 4.8 | 0.00 | 0.00 | 0.00 | 72 | 1008.6 |
| 20260505041012 | 18 | 2 | 6.4 | 8.0 | 0.00 | 0.00 | 0.00 | 71 | 1008.9 |
| 20260505040509 | 18 | 42 | 4.8 | 4.8 | 0.00 | 0.00 | 0.00 | 71 | 1008.8 |
| 20260505040006 | 18 | 18 | 8.0 | 12.9 | 0.00 | 0.00 | 0.00 | 70 | 1008.8 |
| 20260505035502 | 18 | 8 | 4.8 | 4.8 | 0.00 | 0.00 | 0.00 | 71 | 1008.9 |
| 20260505034959 | 18 | 12 | 9.7 | 11.3 | 0.00 | 0.00 | 0.00 | 70 | 1008.9 |
| 20260505034455 | 18 | 315 | 8.0 | 11.3 | 0.00 | 0.00 | 0.00 | 70 | 1009.0 |
| 20260505033953 | 18 | 42 | 1.6 | 3.2 | 0.00 | 0.00 | 0.00 | 71 | 1008.9 |
| 20260505033449 | 18 | 12 | 4.8 | 8.0 | 0.00 | 0.00 | 0.00 | 70 | 1008.8 |
| 20260505032948 | 18 | 328 | 6.4 | 8.0 | 0.00 | 0.00 | 0.00 | 69 | 1009.0 |
| 20260505032444 | 18 | 7 | 6.4 | 8.0 | 0.00 | 0.00 | 0.00 | 69 | 1009.2 |
| 20260505031941 | 18 | 337 | 3.2 | 4.8 | 0.00 | 0.00 | 0.00 | 69 | 1009.1 |
| 20260505031438 | 19 | 328 | 4.8 | 8.0 | 0.00 | 0.00 | 0.00 | 69 | 1009.0 |
| 20260505030935 | 18 | 17 | 8.0 | 11.3 | 0.00 | 0.00 | 0.00 | 69 | 1009.1 |
| 20260505030431 | 19 | 44 | 4.8 | 4.8 | 0.00 | 0.00 | 0.00 | 69 | 1009.0 |
| 20260505025926 | 18 | 12 | 6.4 | 8.0 | 0.00 | 0.00 | 0.00 | 69 | 1009.0 |
| 20260505025424 | 19 | 20 | 4.8 | 4.8 | 0.00 | 0.00 | 0.00 | 68 | 1008.9 |
| 20260505024922 | 19 | 18 | 6.4 | 9.7 | 0.00 | 0.00 | 0.00 | 68 | 1009.0 |
| 20260505024419 | 19 | 32 | 8.0 | 9.7 | 0.00 | 0.00 | 0.00 | 67 | 1008.8 |
| 20260505023916 | 19 | 46 | 9.7 | 11.3 | 0.00 | 0.00 | 0.00 | 67 | 1008.7 |
| 20260505023413 | 19 | 16 | 6.4 | 8.0 | 0.00 | 0.00 | 0.00 | 67 | 1008.4 |
| 20260505022910 | 20 | 5 | 4.8 | 4.8 | 0.00 | 0.00 | 0.00 | 67 | 1008.6 |
| 20260505022408 | 20 | 30 | 4.8 | 4.8 | 0.00 | 0.00 | 0.00 | 66 | 1008.3 |
| 20260505021905 | 20 | 13 | 6.4 | 9.7 | 0.00 | 0.00 | 0.00 | 66 | 1008.4 |
| 20260505021401 | 20 | 12 | 4.8 | 4.8 | 0.00 | 0.00 | 0.00 | 65 | 1008.2 |
| 20260505020857 | 20 | 25 | 8.0 | 9.7 | 0.00 | 0.00 | 0.00 | 65 | 1008.2 |
| 20260505020353 | 20 | 18 | 8.0 | 8.0 | 0.00 | 0.00 | 0.00 | 64 | 1008.3 |
| 20260505015850 | 20 | 32 | 4.8 | 4.8 | 0.00 | 0.00 | 0.00 | 64 | 1008.1 |
| 20260505015347 | 20 | 26 | 9.7 | 11.3 | 0.00 | 0.00 | 0.00 | 63 | 1007.8 |
| 20260505014844 | 20 | 356 | 0.0 | 0.0 | 0.00 | 0.00 | 0.00 | 64 | 1007.8 |
| 20260505014341 | 20 | 48 | 0.0 | 1.6 | 0.00 | 0.00 | 0.00 | 64 | 1007.8 |
| 20260505013838 | 20 | 14 | 8.0 | 9.7 | 0.00 | 0.00 | 0.00 | 62 | 1007.6 |
| 20260505013335 | 21 | 48 | 3.2 | 3.2 | 0.00 | 0.00 | 0.00 | 62 | 1007.6 |
| 20260505012833 | 21 | 2 | 6.4 | 8.0 | 0.00 | 0.00 | 0.00 | 61 | 1007.6 |
| 20260505012331 | 21 | 47 | 8.0 | 9.7 | 0.00 | 0.00 | 0.00 | 61 | 1007.5 |
| 20260505011826 | 21 | 11 | 9.7 | 11.3 | 0.00 | 0.00 | 0.00 | 61 | 1007.5 |
| 20260505011324 | 21 | 27 | 0.0 | 0.0 | 0.00 | 0.00 | 0.00 | 61 | 1007.4 |
| 20260505010819 | 21 | 29 | 8.0 | 9.7 | 0.00 | 0.00 | 0.00 | 60 | 1007.3 |
| 20260505010315 | 21 | 26 | 3.2 | 4.8 | 0.00 | 0.00 | 0.00 | 60 | 1007.3 |
| 20260505005812 | 21 | 48 | 4.8 | 4.8 | 0.00 | 0.00 | 0.00 | 60 | 1007.3 |
| 20260505005309 | 21 | 57 | 6.4 | 9.7 | 0.00 | 0.00 | 0.00 | 59 | 1007.2 |
| 20260505004807 | 21 | 33 | 4.8 | 4.8 | 0.00 | 0.00 | 0.00 | 59 | 1007.3 |
| 20260505004302 | 21 | 54 | 1.6 | 3.2 | 0.00 | 0.00 | 0.00 | 60 | 1007.0 |
| 20260505003800 | 22 | 49 | 4.8 | 4.8 | 0.00 | 0.00 | 0.00 | 59 | 1007.2 |
| 20260505003257 | 22 | 35 | 4.8 | 8.0 | 0.00 | 0.00 | 0.00 | 56 | 1007.0 |
| 20260505002753 | 22 | 33 | 8.0 | 9.7 | 0.00 | 0.00 | 0.00 | 57 | 1007.0 |
| 20260505002251 | 22 | 16 | 12.9 | 16.1 | 0.00 | 0.00 | 0.00 | 55 | 1007.2 |
| 20260505001749 | 23 | 31 | 6.4 | 9.7 | 0.00 | 0.00 | 0.00 | 55 | 1007.0 |
| 20260505001246 | 23 | 39 | 8.0 | 11.3 | 0.00 | 0.00 | 0.00 | 54 | 1007.1 |
| 20260505000742 | 23 | 40 | 4.8 | 8.0 | 0.00 | 0.00 | 0.00 | 54 | 1006.9 |
| 20260505000241 | 23 | 40 | 8.0 | 11.3 | 0.00 | 0.00 | 0.00 | 54 | 1006.8 |
| 20260504235737 | 23 | 48 | 8.0 | 11.3 | 0.00 | 0.00 | 0.00 | 54 | 1007.0 |
| 20260504235233 | 23 | 26 | 11.3 | 16.1 | 0.00 | 0.00 | 0.00 | 53 | 1006.9 |
| 20260504234730 | 24 | 97 | 12.9 | 16.1 | 0.00 | 0.00 | 0.00 | 52 | 1007.0 |
| 20260504234228 | 24 | 26 | 17.7 | 20.9 | 0.00 | 0.00 | 0.00 | 51 | 1006.7 |
| 20260504233724 | 24 | 22 | 12.9 | 14.5 | 0.00 | 0.00 | 0.00 | 51 | 1007.0 |
| 20260504233219 | 24 | 9 | 14.5 | 24.1 | 0.00 | 0.00 | 0.00 | 52 | 1007.1 |
| 20260504232717 | 25 | 20 | 20.9 | 25.7 | 0.00 | 0.00 | 0.00 | 51 | 1007.1 |
| 20260504232214 | 25 | 47 | 8.0 | 11.3 | 0.00 | 0.00 | 0.00 | 51 | 1007.0 |
| 20260504231710 | 25 | 17 | 11.3 | 22.5 | 0.00 | 0.00 | 0.00 | 51 | 1006.8 |
| 20260504231207 | 25 | 70 | 1.6 | 4.8 | 0.00 | 0.00 | 0.00 | 50 | 1007.0 |
| 20260504230703 | 25 | 46 | 17.7 | 25.7 | 0.00 | 0.00 | 0.00 | 48 | 1007.1 |
| 20260504230202 | 25 | 42 | 17.7 | 22.5 | 0.00 | 0.00 | 0.00 | 48 | 1006.9 |
| 20260504225700 | 25 | 45 | 19.3 | 25.7 | 0.00 | 0.00 | 0.00 | 48 | 1007.2 |
| 20260504225155 | 25 | 22 | 11.3 | 17.7 | 0.00 | 0.00 | 0.00 | 48 | 1007.0 |
| 20260504224653 | 25 | 19 | 17.7 | 24.1 | 0.00 | 0.00 | 0.00 | 49 | 1007.0 |
| 20260504224150 | 25 | 32 | 11.3 | 20.9 | 0.00 | 0.00 | 0.00 | 49 | 1007.1 |
| 20260504223647 | 25 | 42 | 16.1 | 20.9 | 0.00 | 0.00 | 0.00 | 48 | 1007.3 |
| 20260504223142 | 25 | 5 | 16.1 | 22.5 | 0.00 | 0.00 | 0.00 | 48 | 1007.4 |
| 20260504222640 | 25 | 17 | 12.9 | 20.9 | 0.00 | 0.00 | 0.00 | 48 | 1007.1 |
| 20260504222136 | 25 | 42 | 4.8 | 8.0 | 0.00 | 0.00 | 0.00 | 50 | 1007.0 |
| 20260504221634 | 25 | 44 | 14.5 | 22.5 | 0.00 | 0.00 | 0.00 | 49 | 1007.2 |
| 20260504221131 | 25 | 36 | 17.7 | 24.1 | 0.00 | 0.00 | 0.00 | 48 | 1007.3 |
| 20260504220627 | 25 | 30 | 19.3 | 24.1 | 0.00 | 0.00 | 0.00 | 49 | 1007.2 |
| 20260504220125 | 25 | 32 | 16.1 | 29.0 | 0.00 | 0.00 | 0.00 | 50 | 1007.2 |
| 20260504215621 | 25 | 62 | 9.7 | 14.5 | 0.00 | 0.00 | 0.00 | 51 | 1007.3 |
| 20260504215119 | 25 | 77 | 8.0 | 17.7 | 0.00 | 0.00 | 0.00 | 51 | 1007.4 |
| 20260504214614 | 25 | 56 | 17.7 | 22.5 | 0.00 | 0.00 | 0.00 | 49 | 1007.3 |
| 20260504214111 | 25 | 72 | 1.6 | 4.8 | 0.00 | 0.00 | 0.00 | 51 | 1007.2 |
| 20260504213607 | 25 | 89 | 3.2 | 11.3 | 0.00 | 0.00 | 0.00 | 51 | 1007.2 |
| 20260504213104 | 25 | 60 | 16.1 | 20.9 | 0.00 | 0.00 | 0.00 | 50 | 1007.5 |
| 20260504212600 | 25 | 47 | 16.1 | 20.9 | 0.00 | 0.00 | 0.00 | 49 | 1007.5 |
| 20260504212057 | 26 | 24 | 8.0 | 11.3 | 0.00 | 0.00 | 0.00 | 52 | 1007.3 |
| 20260504211554 | 25 | 45 | 17.7 | 25.7 | 0.00 | 0.00 | 0.00 | 50 | 1007.6 |
| 20260504211051 | 25 | 29 | 20.9 | 35.4 | 0.00 | 0.00 | 0.00 | 49 | 1007.6 |
| 20260504210549 | 26 | 39 | 20.9 | 27.4 | 0.00 | 0.00 | 0.00 | 50 | 1007.4 |
| 20260504210045 | 25 | 98 | 6.4 | 11.3 | 0.00 | 0.00 | 0.00 | 52 | 1007.6 |
| 20260504205543 | 25 | 44 | 19.3 | 29.0 | 0.00 | 0.00 | 0.00 | 49 | 1007.8 |
| 20260504205041 | 26 | 72 | 11.3 | 20.9 | 0.00 | 0.00 | 0.00 | 51 | 1007.8 |
| 20260504204538 | 25 | 53 | 11.3 | 14.5 | 0.00 | 0.00 | 0.00 | 50 | 1007.9 |
| 20260504204037 | 25 | 75 | 3.2 | 9.7 | 0.00 | 0.00 | 0.00 | 52 | 1007.8 |
| 20260504203535 | 25 | 49 | 14.5 | 24.1 | 0.00 | 0.00 | 0.00 | 51 | 1007.9 |
| 20260504203032 | 25 | 51 | 19.3 | 22.5 | 0.00 | 0.00 | 0.00 | 50 | 1008.1 |
| 20260504202527 | 26 | 36 | 17.7 | 20.9 | 0.00 | 0.00 | 0.00 | 49 | 1008.2 |
| 20260504202025 | 25 | 46 | 11.3 | 16.1 | 0.00 | 0.00 | 0.00 | 52 | 1008.1 |
| 20260504201521 | 25 | 26 | 20.9 | 27.4 | 0.00 | 0.00 | 0.00 | 49 | 1008.2 |
| 20260504201019 | 25 | 68 | 8.0 | 22.5 | 0.00 | 0.00 | 0.00 | 51 | 1008.3 |
| 20260504200515 | 25 | 53 | 4.8 | 14.5 | 0.00 | 0.00 | 0.00 | 54 | 1008.2 |
| 20260504200012 | 25 | 32 | 22.5 | 27.4 | 0.00 | 0.00 | 0.00 | 50 | 1008.6 |
| 20260504195508 | 25 | 56 | 20.9 | 29.0 | 0.00 | 0.00 | 0.00 | 51 | 1008.7 |
| 20260504195005 | 25 | 88 | 3.2 | 3.2 | 0.00 | 0.00 | 0.00 | 53 | 1008.7 |
| 20260504194501 | 25 | 32 | 19.3 | 27.4 | 0.00 | 0.00 | 0.00 | 50 | 1008.3 |
| 20260504193957 | 25 | 55 | 14.5 | 16.1 | 0.00 | 0.00 | 0.00 | 52 | 1008.7 |
| 20260504193454 | 25 | 145 | 17.7 | 27.4 | 0.00 | 0.00 | 0.00 | 51 | 1008.7 |
| 20260504192953 | 25 | 38 | 14.5 | 22.5 | 0.00 | 0.00 | 0.00 | 51 | 1008.6 |
| 20260504192450 | 25 | 45 | 14.5 | 20.9 | 0.00 | 0.00 | 0.00 | 52 | 1008.7 |
| 20260504191949 | 25 | 51 | 22.5 | 37.0 | 0.00 | 0.00 | 0.00 | 49 | 1008.6 |
| 20260504191446 | 25 | 27 | 22.5 | 29.0 | 0.00 | 0.00 | 0.00 | 51 | 1008.9 |
| 20260504190941 | 25 | 24 | 14.5 | 20.9 | 0.00 | 0.00 | 0.00 | 51 | 1008.6 |
| 20260504190438 | 25 | 28 | 14.5 | 17.7 | 0.00 | 0.00 | 0.00 | 51 | 1008.8 |
| 20260504185934 | 25 | 45 | 22.5 | 32.2 | 0.00 | 0.00 | 0.00 | 50 | 1008.4 |
| 20260504185432 | 25 | 75 | 16.1 | 20.9 | 0.00 | 0.00 | 0.00 | 51 | 1008.6 |
| 20260504184927 | 25 | 36 | 19.3 | 24.1 | 0.00 | 0.00 | 0.00 | 50 | 1008.7 |
| 20260504184423 | 25 | 52 | 11.3 | 24.1 | 0.00 | 0.00 | 0.00 | 51 | 1008.7 |
| 20260504183919 | 25 | 41 | 11.3 | 14.5 | 0.00 | 0.00 | 0.00 | 52 | 1008.7 |
| 20260504183417 | 25 | 34 | 12.9 | 22.5 | 0.00 | 0.00 | 0.00 | 52 | 1008.7 |
| 20260504182915 | 25 | 74 | 16.1 | 24.1 | 0.00 | 0.00 | 0.00 | 49 | 1008.9 |
| 20260504182411 | 25 | 80 | 4.8 | 8.0 | 0.00 | 0.00 | 0.00 | 54 | 1009.1 |
| 20260504181908 | 25 | 51 | 4.8 | 9.7 | 0.00 | 0.00 | 0.00 | 55 | 1008.6 |
| 20260504181406 | 25 | 66 | 11.3 | 12.9 | 0.00 | 0.00 | 0.00 | 53 | 1008.8 |
| 20260504180904 | 25 | 56 | 12.9 | 16.1 | 0.00 | 0.00 | 0.00 | 52 | 1008.9 |
| 20260504180403 | 25 | 78 | 4.8 | 9.7 | 0.00 | 0.00 | 0.00 | 52 | 1008.9 |
| 20260504175900 | 25 | 90 | 9.7 | 24.1 | 0.00 | 0.00 | 0.00 | 52 | 1009.2 |
| 20260504175357 | 25 | 62 | 14.5 | 17.7 | 0.00 | 0.00 | 0.00 | 52 | 1009.0 |
| 20260504174855 | 24 | 45 | 11.3 | 27.4 | 0.00 | 0.00 | 0.00 | 52 | 1009.3 |
| 20260504174352 | 24 | 49 | 29.0 | 33.8 | 0.00 | 0.00 | 0.00 | 50 | 1009.4 |
| 20260504173849 | 24 | 43 | 17.7 | 20.9 | 0.00 | 0.00 | 0.00 | 52 | 1009.1 |
| 20260504173346 | 24 | 70 | 11.3 | 14.5 | 0.00 | 0.00 | 0.00 | 54 | 1009.2 |
| 20260504172843 | 24 | 48 | 11.3 | 14.5 | 0.00 | 0.00 | 0.00 | 53 | 1009.3 |
| 20260504172339 | 24 | 16 | 11.3 | 14.5 | 0.00 | 0.00 | 0.00 | 54 | 1009.2 |
| 20260504171835 | 24 | 18 | 17.7 | 22.5 | 0.00 | 0.00 | 0.00 | 52 | 1009.2 |
| 20260504171333 | 24 | 87 | 4.8 | 9.7 | 0.00 | 0.00 | 0.00 | 53 | 1009.2 |
| 20260504170830 | 24 | 52 | 14.5 | 25.7 | 0.00 | 0.00 | 0.00 | 55 | 1009.4 |
| 20260504170326 | 23 | 56 | 9.7 | 17.7 | 0.00 | 0.00 | 0.00 | 56 | 1009.2 |
| 20260504160245 | 22 | 48 | 14.5 | 16.1 | 0.00 | 0.00 | 0.00 | 55 | 1010.1 |
| 20260504150710 | 21 | 57 | 8.0 | 11.3 | 0.00 | 0.00 | 0.00 | 58 | 1010.6 |
| 20260504150207 | 21 | 66 | 14.5 | 16.1 | 0.00 | 0.00 | 0.00 | 57 | 1010.5 |